Wetbulb
66.77 63.71 61.38 59.25 53.71 55.31 53.46 55.80 60.14 58.08 58.28 60.44 60.87 59.95 59.65 61.38 62.88 64.35 77.06 78.50 77.53 78.98 78.65 77.52 78.28 78.69 78.69 78.13 77.86 77.45 76.84 76.47 76.62 76.74 76.84 76.74 76.94 77.12 77.49 77.60 77.55 76.97 76.28 76.56 76.07 75.01 74.19 73.87 73.90
63.64 59.38 59.01 56.29 51.16 50.45 52.73 57.61 57.49 58.82 59.95 60.12 60.12 60.15 60.98 65.85 71.77 72.71 76.16 77.61 78.26 79.33 79.07 78.09 78.10 78.31 78.56 78.18 77.58 77.12 76.89 76.52 76.74 76.71 76.87 76.89 76.79 77.17 77.14 77.62 77.43 76.57 75.71 75.36 75.05 74.44 74.36 73.97 73.84
60.96 59.57 54.68 52.57 51.16 50.52 52.46 57.24 58.88 60.02 59.46 58.89 58.55 61.00 64.44 66.68 72.15 74.82 77.98 77.53 78.58 79.39 79.15 79.14 78.10 78.20 78.23 78.00 77.52 76.94 76.64 76.67 76.92 76.69 76.72 76.84 76.84 76.99 77.14 77.37 77.27 75.91 75.08 74.45 74.42 74.49 74.55 74.39 73.99
57.63 55.99 55.32 50.00 50.09 53.44 54.87 57.36 57.50 58.30 59.07 59.39 58.76 58.09 64.75 70.52 72.96 76.60 76.72 77.34 78.65 79.02 78.95 77.47 77.61 77.72 77.80 77.87 77.47 77.04 77.02 76.94 76.77 76.77 76.92 76.84 76.94 76.73 76.78 76.87 76.62 75.47 74.36 73.93 74.20 74.38 74.56 74.51 74.32
57.71 54.47 49.04 47.97 49.04 52.71 55.55 55.77 56.80 57.11 57.74 57.92 58.58 56.80 59.26 71.64 76.14 77.29 77.02 77.39 77.62 77.99 79.21 78.52 77.39 77.54 77.57 77.67 77.65 77.24 77.06 76.73 76.64 76.81 76.86 76.81 76.73 76.53 76.56 76.29 75.86 74.91 74.45 74.22 74.14 74.18 74.15 74.43 74.48
52.02 52.88 47.17 45.89 48.41 51.33 53.79 55.57 55.81 55.92 56.20 56.52 55.76 56.10 58.46 70.32 74.66 76.83 77.36 77.53 77.29 76.90 78.63 78.16 77.10 77.13 77.16 77.19 77.19 76.98 76.80 76.78 76.76 76.71 76.86 76.73 76.42 76.45 76.38 76.19 75.44 74.91 75.00 74.85 74.49 74.16 73.88 74.15 74.02
51.38 49.99 46.86 47.84 48.23 50.03 52.35 55.00 53.46 54.04 53.78 53.72 56.08 52.70 58.59 66.08 75.36 77.17 77.69 77.76 77.27 77.08 77.34 77.30 76.56 77.03 77.01 76.79 76.51 76.51 76.33 76.31 76.34 76.11 76.11 76.24 76.25 76.22 76.20 76.06 75.57 75.08 75.03 75.23 74.80 74.30 73.82 73.55 73.22
52.80 51.14 47.79 48.44 47.36 48.29 52.77 52.08 53.57 52.81 52.10 55.84 55.19 52.42 54.87 67.39 73.74 76.74 77.57 77.55 76.89 76.95 76.79 76.54 75.89 75.59 76.02 76.62 76.27 76.28 76.31 76.20 75.95 75.85 75.88 75.96 76.07 75.99 75.98 75.36 75.48 75.04 74.56 74.81 74.81 74.54 74.03 73.53 73.28
53.92 47.76 45.85 47.71 48.33 49.51 52.75 49.81 53.60 54.08 52.31 52.93 55.12 55.53 60.44 64.35 71.64 74.64 75.38 76.12 75.31 75.83 76.42 76.31 75.76 74.99 74.45 74.62 76.11 75.91 75.93 76.12 75.83 75.93 75.80 75.17 74.25 75.27 75.54 73.96 75.06 75.31 74.54 74.07 74.47 74.72 74.54 73.82 73.62
50.32 46.62 47.17 50.91 51.33 49.96 51.76 50.42 51.38 50.51 51.04 51.18 52.51 55.14 57.63 59.80 68.50 72.21 73.26 73.18 74.06 73.88 75.16 75.98 76.45 75.42 74.99 74.25 75.93 74.61 74.51 74.79 74.85 74.51 75.38 74.32 74.29 75.14 73.85 74.46 74.86 74.89 74.46 74.29 74.12 74.11 73.77 73.04 71.03
49.91 46.76 50.06 50.74 50.54 51.04 50.31 50.16 51.46 49.99 48.98 51.86 51.81 53.84 55.42 57.60 65.25 68.64 71.48 72.64 72.23 74.15 75.34 75.38 76.94 76.90 75.46 74.25 75.74 73.65 74.11 73.74 74.10 74.58 75.11 75.39 74.22 74.85 73.51 73.84 73.53 74.00 73.65 72.31 72.09 71.35 69.95 69.20 69.90
47.31 49.84 50.06 50.98 50.80 49.53 48.80 51.09 50.17 51.09 51.61 53.79 54.07 55.00 55.48 57.13 60.10 65.85 69.40 72.35 72.01 73.47 75.54 76.32 77.24 77.11 77.19 75.07 74.51 74.59 73.89 74.21 74.12 74.63 75.55 75.48 73.40 74.94 74.78 72.32 73.72 74.27 72.69 72.69 71.92 70.56 71.58 69.99 69.58
48.23 49.10 50.60 51.02 50.67 50.42 51.58 50.29 50.59 50.90 53.21 54.37 54.55 54.46 54.55 57.30 59.66 61.70 68.51 72.50 71.47 73.88 74.90 75.96 76.82 77.07 77.36 77.10 75.53 75.61 74.46 74.35 75.18 75.14 75.61 75.57 74.05 75.77 74.25 74.80 72.75 73.54 72.59 72.50 72.60 71.40 72.38 70.75 70.65
49.85 49.18 49.34 50.60 50.79 51.37 50.26 50.59 51.26 52.32 54.65 53.98 54.14 54.03 55.03 56.52 58.86 61.25 63.32 70.61 71.90 73.67 74.32 75.52 76.44 76.59 76.79 77.07 76.83 76.12 76.31 75.76 75.04 75.17 75.74 76.16 75.90 77.32 75.01 74.92 73.18 73.29 71.91 72.07 72.23 72.56 71.94 71.31 71.14
50.15 47.87 49.49 49.22 51.40 51.14 52.56 49.05 49.66 53.48 54.79 53.39 53.41 54.69 55.73 56.64 59.16 61.01 64.70 70.24 69.19 72.25 73.44 74.81 76.44 76.96 77.12 77.99 77.15 76.38 75.65 75.16 75.41 75.34 77.26 76.23 77.33 77.85 77.20 75.09 74.99 75.61 76.08 77.65 75.97 75.16 73.89 72.41 71.56
48.36 48.56 45.60 50.07 50.88 51.38 51.08 46.29 51.80 54.29 54.22 53.20 54.52 54.98 55.37 56.99 58.54 62.03 66.87 69.87 69.43 68.06 71.23 74.32 73.46 76.39 77.30 77.12 76.40 76.03 76.04 75.98 75.33 75.30 75.56 76.06 76.59 76.51 77.51 76.46 74.86 75.37 76.21 75.22 74.43 74.25 73.45 73.28 72.71
47.31 43.22 45.30 47.19 51.94 50.69 49.84 47.48 52.80 54.54 53.91 53.78 54.97 55.50 55.62 57.61 60.33 63.50 65.69 67.34 67.27 70.76 71.17 71.70 73.01 73.51 76.91 77.70 76.16 75.48 76.11 76.63 75.96 75.10 75.61 75.42 74.45 75.74 75.93 74.83 74.00 76.05 77.03 75.36 74.63 74.32 74.36 73.12 72.84
42.93 43.55 45.88 46.10 49.94 50.16 48.93 48.57 52.00 53.71 54.04 53.77 54.52 55.20 55.95 56.63 58.97 62.01 63.56 64.27 65.25 69.13 69.12 70.42 71.79 73.14 76.92 75.46 76.08 73.43 74.73 76.43 78.26 75.20 74.32 75.06 73.49 74.25 75.45 74.40 74.78 75.61 74.51 75.09 74.52 73.78 73.30 73.90 72.80
47.17 46.11 44.74 47.84 50.52 49.20 48.71 49.20 51.10 53.51 53.67 53.33 53.92 54.80 55.64 56.79 58.86 61.19 62.09 63.29 64.16 67.81 70.86 71.27 70.89 74.76 73.63 70.48 68.52 69.38 69.85 71.17 72.63 74.47 75.83 76.15 75.60 74.97 75.84 71.94 70.66 73.05 72.89 74.31 75.51 73.62 71.90 70.01 71.68
46.97 45.53 45.80 47.88 48.83 49.17 48.63 48.34 51.36 53.07 53.13 54.35 54.66 55.12 55.62 56.74 58.51 60.08 61.47 62.53 64.54 67.71 69.64 71.35 71.05 72.41 71.99 69.68 71.60 69.56 68.63 68.09 70.88 74.88 75.18 76.00 75.20 74.53 75.41 74.53 71.66 73.72 71.90 74.32 72.08 73.30 70.09 71.67 71.46
46.58 44.80 45.56 45.01 47.99 49.30 47.64 45.52 48.49 51.84 53.57 54.70 55.99 56.53 57.02 56.69 58.11 61.11 62.09 64.14 66.49 68.35 69.43 70.98 72.29 72.71 72.80 72.70 71.98 72.53 72.39 72.06 70.64 72.45 73.11 75.54 75.62 75.54 75.07 74.58 74.69 72.84 59.36 61.86 63.63 67.64 68.95 67.68 69.33
44.23 47.91 46.13 45.72 44.96 41.78 48.10 39.87 46.89 50.50 50.97 53.45 55.52 56.48 57.16 57.77 60.69 62.30 63.42 64.68 66.18 66.23 67.02 67.72 67.78 69.05 69.54 71.40 72.20 72.44 70.30 71.50 71.83 74.41 74.23 72.46 73.13 73.21 73.77 72.45 73.38 71.36 63.23 64.93 61.49 69.87 71.04 70.83 68.28
45.74 48.62 47.05 45.55 43.04 44.27 44.97 42.88 46.04 50.35 49.57 52.36 55.16 56.67 58.42 60.24 61.26 61.01 61.43 62.41 63.32 64.28 64.42 64.72 64.98 65.08 65.47 65.94 66.78 68.71 67.55 66.05 67.29 68.79 68.89 70.15 69.67 69.25 67.94 69.90 71.88 73.08 73.20 72.20 71.20 71.19 71.80 71.13 69.67
49.45 47.24 46.85 47.01 45.31 38.34 43.39 44.22 44.69 47.30 50.11 52.83 55.39 57.15 58.74 59.25 59.54 59.94 60.68 61.24 61.23 62.50 62.92 63.33 63.22 63.32 63.89 63.79 63.93 63.79 62.93 63.04 62.37 63.40 62.04 62.96 64.08 64.68 66.72 66.15 67.36 68.16 69.24 70.76 71.27 71.61 71.93 71.57 71.19
48.11 45.47 39.24 37.81 38.41 37.48 44.94 42.45 45.44 49.99 51.75 54.52 54.74 55.92 57.43 58.26 58.65 58.76 59.01 59.19 59.89 60.38 61.04 61.58 62.14 61.61 62.50 62.52 62.61 62.49 62.62 62.82 62.65 61.96 61.20 61.80 61.36 61.82 65.58 66.84 65.71 64.53 66.44 66.13 67.84 68.62 70.44 71.22 70.01
46.29 46.27 40.92 33.77 36.16 39.63 45.72 40.58 43.60 51.13 54.28 55.73 56.57 56.94 57.54 57.81 58.24 58.03 58.44 58.90 58.74 59.43 59.90 60.46 60.82 61.10 61.52 61.57 61.46 61.98 62.27 61.12 61.05 62.10 60.74 60.14 60.14 60.15 64.63 62.98 62.45 62.47 62.69 63.31 65.47 64.14 64.82 67.50 68.05
46.48 43.80 48.39 41.97 44.40 39.63 43.00 45.97 50.81 52.78 52.18 54.31 54.71 55.84 56.15 57.02 57.02 56.96 57.93 58.10 58.37 58.76 59.29 59.57 59.61 59.87 60.22 60.29 61.02 61.15 61.09 60.73 60.38 60.90 60.67 59.84 60.69 60.05 60.80 60.43 60.17 60.63 60.78 61.48 62.98 60.91 62.87 64.83 65.86
48.26 50.42 41.99 43.22 35.80 35.25 41.30 42.02 43.61 48.72 50.49 52.89 53.37 54.33 55.64 56.15 56.13 56.71 57.28 57.26 58.01 58.28 58.95 59.06 59.23 58.91 59.30 59.67 59.93 59.34 59.50 59.73 59.77 59.67 59.26 59.24 59.30 59.14 58.54 58.18 58.22 58.43 58.50 58.91 60.96 59.86 61.18 62.18 62.63
46.18 45.75 46.72 47.04 44.17 37.55 36.18 40.20 49.59 48.26 51.51 52.25 53.61 55.14 55.34 55.26 55.59 55.87 56.14 56.33 56.81 57.51 57.78 58.20 58.17 58.18 58.33 58.53 58.43 58.43 58.50 58.75 58.59 58.04 58.08 58.05 57.99 57.62 56.98 56.77 56.50 56.23 56.32 57.21 58.22 58.12 58.14 57.51 59.13
49.52 47.06 48.06 41.13 39.49 43.28 39.93 40.56 50.93 51.92 53.06 52.13 54.40 55.00 55.48 55.39 55.00 55.28 55.30 55.53 55.87 55.91 56.28 56.74 57.43 57.14 57.45 57.69 57.54 57.69 57.75 57.88 57.36 57.03 57.03 57.05 56.03 56.01 55.43 54.94 54.18 53.73 53.33 54.21 54.27 53.86 54.06 53.88 54.62
MSLP
1010.88 1009.65 1008.42 1007.07 1005.74 1003.02 1000.52 998.59 997.28 997.97 999.16 999.64 1000.01 999.63 999.51 999.27 998.72 1000.06 1002.25 1002.73 1003.00 1004.34 1006.11 1007.39 1007.96 1008.12 1008.55 1009.03 1009.52 1009.95 1010.30 1010.68 1011.09 1011.57 1011.86 1012.35 1012.70 1012.97 1013.19 1013.33 1013.49 1013.73 1013.89 1014.14 1014.27 1014.50 1014.68 1014.84 1014.98
1009.71 1008.38 1007.60 1005.85 1004.01 1001.41 999.37 998.53 997.25 998.51 998.86 1000.26 1000.06 999.90 999.42 999.51 1000.40 1000.71 1001.65 1003.56 1003.29 1004.99 1006.29 1006.76 1008.03 1008.39 1008.74 1009.20 1009.69 1010.16 1010.53 1010.90 1011.19 1011.55 1011.97 1012.32 1012.84 1013.20 1013.41 1013.44 1013.65 1013.91 1014.08 1014.28 1014.45 1014.63 1014.87 1015.10 1015.28
1010.14 1008.17 1006.63 1004.59 1002.67 1000.52 998.78 997.57 997.23 998.26 1000.07 1000.53 1000.23 1000.38 1000.08 1000.51 1001.33 1001.97 1003.37 1003.82 1003.84 1005.16 1006.32 1007.05 1008.19 1008.47 1008.77 1009.29 1009.72 1010.33 1010.75 1011.11 1011.49 1011.82 1012.26 1012.63 1012.87 1013.17 1013.45 1013.69 1013.91 1014.07 1014.22 1014.42 1014.61 1014.82 1015.01 1015.25 1015.42
1008.41 1007.53 1006.34 1003.32 1001.12 999.94 999.16 998.06 998.24 998.90 1000.36 1000.86 1000.76 1000.35 1000.71 1001.94 1002.38 1003.03 1003.61 1003.86 1004.24 1005.18 1005.93 1007.84 1008.43 1008.71 1008.91 1009.30 1009.67 1010.20 1010.86 1011.27 1011.66 1012.10 1012.55 1012.86 1013.05 1013.26 1013.45 1013.70 1013.94 1014.15 1014.36 1014.50 1014.68 1014.97 1015.20 1015.36 1015.50
1007.65 1006.00 1004.20 1002.17 1000.98 1000.01 998.91 998.82 999.14 999.90 1000.11 1000.40 1000.69 1000.78 1000.82 1001.69 1003.05 1003.27 1003.66 1003.90 1004.41 1005.00 1005.74 1007.74 1008.64 1009.01 1009.25 1009.52 1009.85 1010.33 1010.78 1011.29 1011.69 1012.14 1012.52 1012.92 1013.28 1013.43 1013.64 1013.86 1014.08 1014.18 1014.42 1014.64 1014.82 1015.07 1015.24 1015.38 1015.54
1006.32 1005.34 1003.08 1001.13 999.96 999.41 999.08 999.35 1000.43 1000.48 1000.67 1000.69 1000.85 1001.23 1001.00 1001.59 1002.49 1003.12 1003.35 1003.57 1004.06 1004.81 1005.77 1007.59 1008.86 1009.19 1009.51 1009.82 1010.19 1010.51 1010.93 1011.38 1011.81 1012.13 1012.55 1012.88 1013.24 1013.62 1013.83 1013.95 1014.12 1014.27 1014.50 1014.70 1014.93 1015.06 1015.24 1015.46 1015.65
1005.57 1004.07 1002.43 1000.90 999.38 998.44 998.45 999.31 1001.13 1001.21 1001.05 1001.01 1000.96 1000.90 1000.88 1001.42 1002.64 1003.02 1003.23 1003.23 1003.83 1004.65 1005.83 1007.33 1008.19 1009.05 1009.68 1009.98 1010.25 1010.76 1011.18 1011.53 1011.85 1012.11 1012.49 1012.97 1013.19 1013.45 1013.76 1014.15 1014.27 1014.26 1014.48 1014.69 1014.90 1015.08 1015.18 1015.35 1015.58
1005.53 1004.22 1002.16 1000.89 999.59 998.68 999.18 1000.19 1001.56 1001.46 1000.92 1001.13 1001.74 1001.43 1001.07 1001.71 1003.08 1002.97 1003.02 1002.93 1003.46 1004.42 1005.34 1006.61 1007.50 1008.43 1009.08 1009.91 1010.59 1010.79 1011.25 1011.64 1012.00 1012.27 1012.54 1012.79 1013.17 1013.45 1013.64 1013.85 1014.13 1014.50 1014.62 1014.67 1014.77 1014.85 1015.06 1015.24 1015.42
1005.79 1004.29 1001.86 1000.61 999.68 999.50 999.82 1001.21 1001.50 1002.35 1002.20 1002.15 1002.04 1001.98 1001.79 1002.46 1003.00 1002.64 1002.68 1002.75 1003.14 1003.92 1004.82 1005.99 1007.10 1007.95 1008.34 1008.92 1010.41 1011.07 1011.43 1011.73 1012.03 1012.37 1012.75 1013.01 1012.73 1013.07 1013.32 1013.40 1013.67 1014.12 1014.48 1014.76 1014.93 1015.02 1014.99 1015.12 1015.17
1005.22 1003.61 1001.79 1000.73 1000.17 999.95 1000.18 1001.48 1001.65 1002.64 1002.61 1002.34 1002.44 1002.39 1002.40 1002.69 1002.76 1002.56 1002.50 1002.52 1002.98 1003.67 1004.35 1005.11 1006.74 1007.49 1007.74 1008.02 1009.67 1010.36 1010.80 1011.28 1011.64 1011.82 1012.15 1012.39 1012.15 1012.19 1012.33 1012.78 1013.74 1014.05 1014.14 1014.23 1014.46 1014.75 1014.98 1015.16 1014.24
1004.38 1003.09 1001.68 1001.14 1001.86 1002.01 1001.66 1001.72 1002.00 1002.24 1002.17 1001.78 1001.72 1001.89 1002.06 1002.31 1002.22 1002.21 1002.28 1003.03 1003.18 1003.38 1003.50 1004.14 1006.20 1007.18 1007.31 1007.39 1008.84 1009.61 1010.00 1010.66 1011.19 1011.42 1011.65 1011.88 1011.59 1011.62 1012.09 1012.08 1013.01 1013.38 1013.95 1013.74 1013.89 1013.96 1014.08 1013.73 1013.56
1003.92 1003.05 1002.60 1001.64 1002.05 1002.84 1002.54 1002.42 1001.97 1002.08 1002.00 1001.90 1001.76 1002.04 1001.83 1001.64 1002.08 1002.35 1002.04 1002.24 1003.34 1003.52 1004.31 1004.51 1005.20 1007.11 1007.58 1007.35 1008.20 1008.68 1009.11 1009.87 1010.38 1010.84 1011.37 1011.50 1011.33 1011.26 1011.33 1011.30 1011.53 1012.32 1012.26 1012.73 1012.55 1012.59 1012.84 1012.98 1012.90
1003.18 1002.99 1002.32 1002.36 1002.51 1002.65 1002.59 1002.20 1002.20 1001.74 1001.84 1001.88 1001.79 1001.79 1001.84 1001.33 1002.01 1002.15 1002.07 1001.99 1003.66 1003.66 1001.59 1005.96 1005.60 1007.44 1007.91 1008.20 1008.10 1008.54 1008.69 1009.23 1009.54 1009.93 1010.72 1011.18 1011.17 1011.09 1011.12 1011.03 1011.00 1010.93 1011.25 1011.26 1011.88 1011.80 1011.89 1012.41 1012.55
1002.79 1002.99 1002.49 1002.09 1002.10 1002.27 1002.29 1001.86 1001.58 1001.34 1001.33 1001.42 1001.32 1001.46 1001.51 1001.81 1001.89 1001.99 1002.27 1002.38 1003.04 1002.95 1003.70 1005.44 1006.63 1007.92 1008.47 1008.95 1009.03 1009.14 1009.42 1009.14 1009.59 1009.56 1009.88 1010.75 1010.94 1011.00 1011.16 1011.22 1010.89 1011.13 1010.88 1010.61 1010.74 1011.24 1011.58 1011.87 1012.03
1002.90 1002.60 1002.28 1001.92 1001.65 1001.71 1001.70 1001.17 1000.52 1000.81 1000.65 1000.73 1001.16 1001.24 1001.21 1001.24 1001.16 1001.39 1001.86 1002.75 1003.33 1004.63 1004.61 1005.62 1006.53 1007.15 1008.32 1008.72 1008.92 1009.47 1009.49 1009.78 1009.72 1009.66 1009.99 1010.19 1010.72 1010.80 1010.94 1010.77 1010.89 1010.75 1010.56 1010.69 1010.77 1011.23 1011.33 1011.60 1011.48
1002.87 1002.49 1001.38 1000.60 1000.93 1001.22 1001.62 999.71 999.08 999.99 1000.15 1000.40 1000.48 1000.52 1000.63 1000.62 1000.77 1001.03 1001.83 1002.50 1003.33 1003.54 1004.87 1005.28 1005.47 1006.62 1007.90 1008.07 1008.33 1008.65 1009.07 1009.16 1009.35 1009.68 1010.14 1010.55 1010.45 1010.89 1011.02 1010.96 1010.61 1010.29 1010.49 1010.37 1010.21 1010.54 1010.68 1010.58 1010.53
1002.45 1001.24 1000.37 999.67 999.17 1000.30 1001.06 999.56 998.78 999.66 1000.00 999.95 999.88 1000.03 1000.22 1000.46 1000.65 1001.14 1001.52 1002.27 1002.93 1003.73 1004.10 1004.67 1005.11 1005.69 1007.04 1007.53 1007.73 1008.40 1008.50 1009.22 1009.61 1009.54 1008.82 1009.85 1010.49 1010.47 1010.86 1010.54 1010.48 1010.73 1011.08 1011.04 1010.53 1010.43 1010.17 1010.01 1009.74
1000.79 1000.73 999.76 998.81 999.18 1000.22 1000.01 999.67 998.91 999.50 999.44 999.75 999.69 999.68 999.76 1000.01 1000.37 1000.95 1001.50 1001.96 1002.39 1003.14 1003.93 1004.14 1005.19 1005.81 1006.58 1007.09 1007.53 1007.71 1008.61 1009.22 1009.99 1009.84 1008.89 1006.44 1007.84 1010.15 1010.64 1010.50 1010.32 1009.89 1010.38 1011.08 1011.05 1010.44 1010.11 1009.90 1009.49
1000.36 1000.04 1000.01 999.01 998.83 999.80 999.83 999.32 998.93 998.78 999.18 999.47 999.36 999.36 999.49 999.80 1000.04 1000.51 1001.55 1002.03 1002.34 1003.00 1003.96 1004.89 1005.46 1006.05 1006.68 1006.48 1006.75 1006.91 1007.42 1008.01 1008.88 1009.53 1009.31 1008.56 1007.72 1010.03 1010.71 1010.92 1010.63 1009.88 1009.41 1009.91 1010.52 1010.71 1010.55 1010.41 1010.30
1000.52 1000.08 999.61 999.63 1000.02 1000.10 1000.13 999.64 999.09 998.98 998.96 999.14 999.28 999.62 999.62 999.69 1000.30 1001.74 1002.31 1002.73 1002.83 1004.05 1004.68 1005.47 1005.96 1006.40 1006.47 1006.54 1007.07 1007.12 1007.36 1007.26 1007.87 1009.01 1008.60 1009.02 1009.32 1009.75 1010.39 1010.56 1009.83 1009.89 1009.98 1010.58 1010.75 1010.92 1010.89 1010.79 1010.72
1000.47 1000.17 1000.11 1000.10 999.99 1000.09 1000.25 999.97 999.45 998.89 999.09 999.55 1000.02 1000.08 999.67 999.80 1000.56 1002.38 1003.08 1003.70 1004.30 1005.00 1005.57 1005.91 1006.44 1006.83 1007.29 1007.46 1007.40 1007.48 1007.98 1008.01 1008.08 1008.76 1009.12 1008.81 1008.63 1009.05 1009.34 1009.84 1010.12 1010.13 1010.85 1011.12 1011.55 1009.60 1011.14 1010.54 1010.89
999.83 1000.48 1000.62 1000.28 1000.29 999.58 999.97 998.86 998.62 998.82 998.92 999.38 999.91 1000.05 1000.18 1000.26 1001.61 1003.21 1003.87 1004.62 1005.44 1006.31 1007.01 1007.60 1007.89 1007.69 1008.14 1008.20 1008.03 1008.36 1008.08 1008.74 1009.52 1009.33 1009.05 1009.32 1009.10 1008.98 1008.81 1009.32 1009.00 1009.60 1010.20 1010.19 1010.86 1010.83 1010.36 1010.49 1009.86
999.66 999.83 1000.41 1001.24 1001.11 1000.13 998.93 998.65 997.16 997.33 997.87 998.76 999.89 1000.25 1000.86 1001.67 1002.98 1003.90 1004.59 1005.54 1006.40 1007.17 1007.69 1008.17 1008.47 1008.58 1008.89 1009.01 1009.21 1008.93 1009.12 1009.59 1010.02 1009.54 1009.40 1009.58 1009.27 1009.23 1009.03 1008.76 1008.51 1008.79 1009.61 1009.54 1009.56 1009.64 1009.66 1009.47 1008.33
999.83 1000.06 1000.32 1000.50 1000.48 999.98 998.98 998.15 996.87 997.17 997.22 998.05 999.90 1001.05 1002.05 1003.07 1004.11 1004.81 1005.71 1006.37 1006.92 1007.48 1007.91 1008.21 1008.51 1008.84 1009.30 1009.52 1009.89 1010.11 1010.29 1010.42 1010.09 1009.88 1009.94 1009.29 1009.01 1009.03 1008.88 1009.08 1009.17 1009.28 1009.21 1008.76 1008.87 1008.89 1008.55 1008.22 1008.58
999.58 999.74 999.58 999.89 999.53 998.58 998.80 998.27 997.37 997.54 996.81 998.03 1000.00 1001.59 1002.82 1003.87 1004.63 1005.31 1005.87 1006.44 1007.09 1007.49 1007.79 1008.19 1008.63 1009.15 1009.54 1009.96 1010.09 1010.10 1010.31 1010.44 1010.14 1010.01 1009.68 1009.83 1009.60 1009.11 1009.13 1009.41 1009.58 1009.63 1009.45 1009.43 1009.07 1008.56 1008.28 1007.93 1007.66
998.51 998.80 997.97 998.53 998.24 997.74 998.05 998.06 997.96 998.26 998.54 999.35 1000.35 1001.89 1003.19 1003.97 1004.71 1005.33 1006.07 1006.61 1007.34 1007.95 1008.29 1008.52 1008.94 1009.26 1009.51 1009.85 1010.40 1010.49 1010.73 1010.25 1010.16 1009.86 1010.43 1010.47 1010.21 1009.98 1009.86 1009.79 1009.69 1009.44 1009.31 1009.12 1008.92 1008.52 1007.94 1007.57 1007.06
997.82 997.98 998.36 998.75 999.57 999.85 998.11 998.07 998.96 999.14 999.36 999.81 1001.04 1002.19 1003.49 1004.32 1005.23 1006.03 1006.68 1007.12 1007.53 1007.93 1008.62 1008.89 1009.25 1009.59 1009.78 1010.01 1010.45 1010.48 1010.77 1010.82 1010.62 1010.78 1010.89 1010.47 1010.39 1009.96 1010.16 1010.04 1009.96 1009.68 1009.56 1009.18 1008.77 1008.24 1007.75 1007.37 1006.90
997.41 998.07 998.62 999.84 999.69 998.99 998.60 999.01 998.64 999.36 999.41 1000.46 1001.28 1002.38 1003.66 1004.73 1005.50 1006.16 1006.71 1007.41 1007.87 1008.23 1008.69 1009.36 1009.62 1009.81 1009.97 1010.10 1010.37 1010.58 1010.96 1010.76 1010.71 1010.70 1010.64 1010.60 1010.48 1010.32 1010.22 1010.21 1009.85 1009.41 1009.41 1008.79 1008.78 1008.16 1007.53 1007.11 1006.87
997.39 997.95 999.41 999.70 999.54 1000.04 999.50 999.85 1000.10 1000.61 1000.10 1000.71 1001.27 1002.29 1003.60 1004.58 1005.22 1006.06 1006.56 1007.32 1007.58 1007.98 1008.52 1009.13 1009.47 1009.68 1009.80 1010.00 1010.29 1010.57 1010.77 1010.81 1010.74 1010.72 1010.63 1010.60 1010.46 1010.26 1009.94 1009.53 1009.26 1009.19 1009.14 1008.88 1008.50 1007.98 1007.77 1007.40 1006.96
997.11 997.45 998.78 999.53 1000.29 1000.43 1000.89 1001.03 1000.64 1000.93 1000.90 1001.43 1001.16 1002.43 1003.58 1004.51 1005.38 1006.06 1006.63 1007.26 1007.67 1008.27 1008.78 1009.11 1009.63 1009.77 1009.84 1010.08 1010.30 1010.52 1010.69 1010.72 1010.64 1010.62 1010.61 1010.59 1010.47 1010.32 1010.12 1009.92 1009.70 1009.44 1008.96 1008.69 1008.36 1007.94 1007.87 1007.51 1006.95
Wind_Speed
16 15 11 9 9 10 19 19 16 3 7 4 4 7 9 11 11 7 7 9 5 19 19 15 12 15 16 16 16 15 16 16 15 14 14 12 11 11 11 11 11 10 11 10 9 9 9 9 8
16 9 9 9 11 16 15 21 12 10 7 3 6 4 10 11 14 5 8 5 11 18 16 17 14 14 15 15 15 15 15 15 15 15 14 14 12 11 11 11 11 10 10 9 8 9 8 8 8
13 12 10 9 16 18 18 17 18 9 4 5 5 2 4 7 13 8 8 6 13 16 16 15 13 15 16 16 16 15 14 15 14 14 14 13 13 12 11 10 9 10 9 8 8 8 8 8 7
8 8 9 14 21 23 26 22 2 3 6 5 2 7 6 10 4 5 6 9 13 15 17 18 13 14 16 16 17 17 15 15 15 14 13 12 12 11 11 10 9 9 8 8 8 7 6 7 6
10 11 14 17 23 24 21 8 6 8 12 6 5 10 4 12 4 2 8 10 13 15 17 15 14 14 14 16 17 16 17 16 16 15 14 13 11 11 10 10 9 9 9 8 7 6 6 5 5
10 13 15 17 23 21 22 8 13 13 13 11 9 11 10 10 3 4 8 11 13 14 15 16 14 14 14 15 15 16 16 16 15 15 14 13 12 10 9 9 9 8 8 8 7 6 5 4 3
17 14 18 21 19 17 14 7 10 16 16 16 14 13 8 9 8 2 6 10 13 15 14 16 16 15 13 13 14 13 13 14 14 15 15 13 13 12 10 7 7 8 8 8 8 6 5 4 4
14 15 22 19 18 18 8 5 8 13 13 6 3 8 13 12 2 6 7 10 13 14 15 16 16 15 14 13 12 13 13 12 12 13 13 14 12 12 11 10 9 7 7 8 9 8 7 6 5
11 15 17 21 20 13 5 3 10 6 9 7 11 16 9 4 5 5 8 10 11 13 15 15 15 14 14 15 12 12 12 12 12 11 10 10 10 12 14 12 14 12 9 7 7 7 7 7 8
16 15 21 18 10 6 9 7 8 8 13 14 14 15 13 7 8 9 9 11 13 14 15 15 14 14 13 12 14 12 12 11 10 11 12 10 11 11 11 11 12 10 11 11 10 9 8 8 9
19 21 15 14 6 10 13 9 6 13 15 14 12 13 15 16 12 11 15 3 11 13 13 15 14 11 12 10 11 8 8 7 8 11 10 11 9 8 8 7 8 8 11 8 11 11 9 12 10
21 19 22 13 7 10 14 14 15 11 14 14 10 11 15 16 12 12 13 17 11 6 13 6 14 10 9 7 8 9 9 9 8 10 11 8 7 7 7 7 10 9 8 10 9 8 9 11 12
23 21 17 16 16 14 14 13 15 14 13 12 13 14 17 16 13 12 11 10 7 16 16 9 10 7 7 5 4 5 6 8 8 9 11 9 9 6 7 6 7 7 9 9 8 9 7 10 10
14 20 21 15 15 17 15 17 18 13 16 14 12 14 14 13 19 14 13 11 12 8 11 8 7 9 7 7 4 3 3 5 6 7 9 13 9 6 6 6 7 7 8 8 7 8 8 9 10
18 13 17 21 17 15 13 19 16 13 9 10 11 13 14 18 19 16 16 16 8 10 12 13 14 13 10 9 9 7 8 7 7 8 9 10 11 9 9 8 7 7 7 7 5 7 7 8 9
18 18 19 20 22 18 11 16 20 14 9 10 11 12 13 13 16 12 13 12 15 10 14 13 12 15 14 10 8 7 4 6 8 9 9 10 9 11 8 6 8 8 6 8 8 9 11 11 12
16 18 23 21 21 12 15 17 15 8 8 11 11 11 14 13 12 15 17 16 15 13 12 15 9 14 13 10 6 5 5 4 6 7 10 10 10 14 11 11 7 7 5 9 8 8 9 8 10
18 17 19 21 17 18 15 20 6 8 12 12 12 12 12 14 17 13 13 14 14 11 4 5 6 7 11 10 9 7 2 1 3 10 9 11 12 10 11 9 9 9 8 9 11 10 7 10 9
19 17 16 15 6 10 19 16 16 11 11 12 11 11 11 13 11 13 12 9 11 5 10 8 5 7 6 9 9 6 6 4 5 9 10 14 7 9 12 11 9 8 9 12 12 9 8 5 5
20 15 13 9 11 9 14 19 11 16 8 11 4 7 11 13 9 6 7 6 4 6 7 7 5 4 3 4 2 4 5 6 3 6 9 11 11 10 13 16 10 9 8 10 11 9 7 8 7
20 18 16 16 14 19 15 17 15 13 10 6 8 9 10 18 13 8 8 7 7 8 5 6 7 7 7 3 3 1 4 5 5 6 8 7 8 12 11 13 11 7 7 2 16 14 19 7 11
19 17 14 12 13 14 20 14 19 20 16 11 7 9 7 9 13 10 11 10 10 9 9 8 8 8 9 7 5 4 5 4 3 3 1 7 4 8 7 10 10 6 4 6 14 18 11 9 10
17 14 17 16 16 17 21 17 15 23 21 16 9 10 12 12 13 12 12 11 11 9 10 10 11 12 11 11 8 1 5 3 3 3 5 6 6 5 7 9 10 6 10 10 9 10 9 10 7
15 15 15 17 13 16 22 15 15 14 15 19 14 9 12 12 12 12 12 11 11 11 10 10 11 11 9 8 8 6 4 4 4 5 6 6 6 7 5 6 7 9 10 10 6 11 12 10 11
17 15 11 13 14 13 21 17 13 8 12 19 16 13 12 12 13 13 13 11 9 9 9 9 9 9 7 6 5 5 5 5 5 6 5 7 8 8 8 8 7 8 9 11 11 11 12 11 11
22 21 12 15 14 17 21 16 12 11 10 12 16 14 13 12 11 10 9 10 10 9 8 8 7 7 6 6 5 4 5 5 6 6 8 7 9 9 9 10 11 12 13 11 11 11 11 13 12
22 21 20 12 16 7 6 8 10 11 11 14 15 14 12 11 11 11 10 7 8 7 7 7 6 6 5 6 5 5 6 7 7 8 8 8 9 9 11 13 13 14 15 14 13 12 13 14 14
17 14 13 7 8 15 13 7 9 14 15 16 16 15 13 11 10 9 8 7 6 5 7 6 5 6 6 6 5 6 8 8 8 9 10 11 11 12 13 13 14 14 15 15 14 14 14 15 13
18 11 9 16 7 5 9 5 8 3 10 16 16 15 14 12 10 8 7 6 5 5 6 6 6 7 7 7 7 8 8 8 8 9 10 11 12 14 15 16 16 17 17 15 14 14 15 17 17
20 19 20 6 10 6 4 8 8 6 5 11 16 14 13 9 7 7 6 5 5 6 6 6 7 7 8 8 8 8 8 9 9 10 12 12 13 13 14 15 15 16 17 14 15 15 15 16 19
Wind_Direction
272 238 238 256 242 231 256 253 262 100 212 84 286 306 339 295 350 41 80 57 153 128 142 153 132 132 136 143 143 140 141 142 143 142 139 140 138 137 133 124 120 123 124 128 133 136 138 141 137
283 237 236 263 237 243 240 241 238 234 82 324 273 283 263 83 49 8 98 64 145 130 149 151 140 136 136 140 140 141 143 146 146 144 143 143 144 143 139 130 129 132 132 136 142 145 144 141 136
255 244 248 225 232 244 254 252 231 162 105 258 274 278 19 20 47 13 54 135 144 141 159 135 142 140 139 141 140 142 146 146 144 143 145 148 146 145 141 136 135 138 142 148 153 154 149 145 144
220 209 251 255 245 227 248 271 168 241 193 218 26 259 118 59 11 18 104 147 137 147 166 128 141 143 143 145 145 145 146 144 144 144 146 148 148 146 144 143 143 146 154 160 160 159 156 157 153
240 251 234 233 243 257 269 276 304 218 245 214 197 279 257 102 72 89 129 149 155 155 131 147 143 144 145 147 146 145 145 146 146 147 149 150 151 150 149 149 152 154 164 165 163 164 166 172 173
222 239 242 238 244 240 245 178 264 255 254 258 274 249 256 93 175 145 162 162 159 154 134 143 141 141 143 145 145 143 145 147 150 149 153 154 153 154 154 156 157 160 169 171 174 172 180 189 194
241 225 245 251 259 252 238 185 221 245 253 250 251 259 240 139 73 203 179 168 159 150 149 156 164 149 140 142 140 141 146 150 153 153 155 158 157 156 155 159 165 166 174 176 180 185 193 204 224
243 260 258 250 257 254 256 139 247 241 248 262 348 237 240 92 145 161 191 177 169 155 153 160 164 169 171 157 144 145 150 154 156 158 159 159 162 164 166 162 172 183 189 188 190 194 202 211 228
234 251 246 242 247 242 202 215 189 306 284 194 244 236 77 56 187 228 190 190 172 163 150 160 159 169 183 164 157 149 159 161 158 161 163 162 194 185 172 195 161 178 190 202 215 219 213 219 231
226 227 241 252 297 280 272 186 260 194 234 232 230 252 269 239 219 192 213 183 176 171 161 158 156 175 184 165 153 186 181 188 192 189 178 205 218 186 208 179 165 181 190 198 205 216 229 232 247
221 244 241 255 278 292 291 267 234 250 247 252 240 231 226 226 211 230 189 206 183 177 169 155 150 181 190 187 155 187 182 193 194 201 189 211 204 198 205 175 186 206 201 220 203 205 222 224 236
234 239 252 274 255 255 252 256 261 239 251 274 267 254 250 208 210 206 258 168 157 342 149 163 141 178 209 197 175 186 193 186 198 198 202 213 221 204 202 219 194 194 206 217 234 212 223 218 229
232 248 236 253 252 240 250 248 252 256 252 244 253 243 232 214 219 223 213 167 35 173 103 156 136 197 184 259 204 228 213 181 203 191 191 223 220 217 213 228 239 219 212 209 223 240 218 220 240
235 234 258 241 239 234 241 247 235 239 233 235 237 238 215 227 224 215 217 142 147 119 113 153 156 168 183 210 232 218 279 266 215 240 196 196 232 233 210 235 216 248 247 243 233 218 238 226 246
250 249 239 244 241 245 233 249 234 240 253 215 201 219 224 216 216 210 198 152 122 159 144 158 168 158 192 205 178 205 218 233 246 228 231 211 208 228 218 222 218 252 240 234 262 285 269 262 265
231 238 250 226 217 222 212 256 203 215 200 215 207 219 213 213 214 191 190 156 165 167 162 179 180 154 178 176 184 197 211 225 224 211 250 234 238 232 235 237 234 229 260 265 235 220 229 235 232
218 239 226 251 188 201 206 243 149 178 210 222 215 211 203 193 195 190 179 177 188 200 198 180 176 162 170 155 167 207 231 214 283 279 215 206 227 228 232 228 235 216 266 274 254 246 251 253 251
216 220 251 224 170 219 196 247 233 219 223 219 228 221 201 211 185 201 208 218 203 193 189 190 167 187 173 158 154 166 103 200 270 287 288 220 184 225 225 236 227 200 203 237 247 262 270 270 258
246 219 233 265 189 202 228 232 240 223 196 228 234 232 227 195 207 182 188 237 231 90 167 170 168 140 211 230 222 197 195 162 220 258 262 293 319 239 227 237 238 238 239 225 237 244 234 261 287
238 245 242 226 253 214 241 243 248 243 205 235 255 263 243 217 157 121 163 227 220 121 127 120 134 139 207 195 276 305 286 244 237 243 237 258 251 234 235 242 240 248 264 267 263 247 255 253 250
226 233 229 240 227 228 240 245 241 244 219 192 217 247 245 230 146 147 148 144 126 112 121 97 76 80 41 340 171 102 304 289 277 271 271 252 239 243 236 247 243 243 109 143 324 255 236 214 231
222 217 251 272 241 236 206 242 208 227 196 195 177 185 184 115 120 124 120 115 105 101 92 84 78 89 73 46 37 343 245 262 343 277 151 307 282 291 265 233 250 211 195 233 208 246 233 227 235
228 220 204 217 252 263 250 219 260 191 189 174 168 151 139 131 128 124 111 110 109 111 103 95 84 77 77 70 52 110 14 57 301 331 14 303 269 271 305 324 322 238 208 225 250 243 235 245 238
222 235 229 231 225 235 243 235 232 186 195 163 145 147 129 126 122 115 114 120 124 126 112 104 91 79 70 70 82 79 71 351 341 353 316 293 318 310 291 298 317 320 317 303 258 244 248 241 239
216 207 201 209 219 230 222 234 242 341 188 139 150 145 138 141 138 140 142 125 115 105 100 105 90 89 80 67 46 37 8 325 295 323 314 336 302 314 327 348 317 302 308 299 302 299 293 267 249
207 204 215 217 211 219 204 216 233 166 134 156 130 142 145 151 135 122 120 130 116 101 85 82 80 73 58 43 10 7 335 322 311 345 333 306 307 304 313 312 304 297 294 291 289 279 276 275 272
194 216 238 253 277 252 254 151 130 168 194 132 144 143 155 144 138 138 134 112 93 93 76 60 44 44 37 19 351 339 338 336 328 318 309 297 312 313 314 315 302 297 293 287 286 276 273 272 268
244 230 222 213 232 246 176 190 171 183 171 164 157 162 155 153 150 142 131 116 103 83 90 57 32 17 2 357 347 349 328 327 326 320 316 313 310 308 307 299 297 297 293 291 285 279 273 268 264
202 200 189 241 254 246 256 198 33 40 225 183 170 164 158 170 157 153 136 119 102 72 51 39 9 357 350 347 343 333 326 323 320 316 316 314 312 307 305 305 306 300 294 290 290 292 291 283 285
213 204 192 201 222 228 183 271 147 256 174 320 169 163 159 166 156 146 134 110 57 36 15 12 1 338 341 335 331 322 318 320 318 315 313 311 307 304 301 303 302 301 302 304 305 304 295 296 293